| time (UTC) | temp F | wind direction | speed MPH | gust MPH | rain 1hr in | rain 24hr in | rain mn in | humidity % | barometer mb |
| 20260902000017 | 66 | 296 | 0.0 | 3.0 | 0.00 | 0.00 | 0.00 | 56 | 1011.7 |
| 20260901234510 | 67 | 283 | 0.0 | 2.0 | 0.00 | 0.00 | 0.00 | 51 | 1011.7 |
| 20260901233016 | 67 | 212 | 0.0 | 3.0 | 0.00 | 0.00 | 0.00 | 52 | 1011.7 |
| 20260901231506 | 67 | 86 | 0.0 | 1.0 | 0.00 | 0.00 | 0.00 | 51 | 1011.8 |
| 20260901230033 | 67 | 32 | 0.0 | 1.0 | 0.00 | 0.00 | 0.00 | 52 | 1011.9 |
| 20260901224535 | 67 | 148 | 0.0 | 0.0 | 0.00 | 0.00 | 0.00 | 53 | 1011.9 |
| 20260901223025 | 67 | 139 | 0.0 | 2.0 | 0.00 | 0.00 | 0.00 | 53 | 1011.9 |
| 20260901221520 | 67 | 188 | 0.0 | 1.0 | 0.00 | 0.00 | 0.00 | 52 | 1012.0 |
| 20260901220015 | 67 | 161 | 0.0 | 2.0 | 0.00 | 0.00 | 0.00 | 52 | 1011.9 |
| 20260901214511 | 68 | 119 | 0.0 | 2.0 | 0.00 | 0.00 | 0.00 | 52 | 1011.8 |
| 20260901213011 | 68 | 113 | 0.0 | 1.0 | 0.00 | 0.00 | 0.00 | 52 | 1011.8 |
| 20260901211534 | 68 | 200 | 0.0 | 2.0 | 0.00 | 0.00 | 0.00 | 52 | 1011.7 |
| 20260901210031 | 68 | 106 | 0.0 | 1.0 | 0.00 | 0.00 | 0.00 | 53 | 1011.7 |
| 20260901204527 | 68 | 146 | 0.0 | 1.0 | 0.00 | 0.00 | 0.00 | 52 | 1011.7 |
| 20260901203026 | 68 | 233 | 0.0 | 1.0 | 0.00 | 0.00 | 0.00 | 53 | 1011.8 |
| 20260901201520 | 68 | 245 | 0.0 | 4.0 | 0.00 | 0.00 | 0.00 | 53 | 1011.8 |
| 20260901200009 | 67 | 160 | 0.0 | 1.0 | 0.00 | 0.00 | 0.00 | 54 | 1011.9 |
| 20260901194512 | 67 | 165 | 0.0 | 1.0 | 0.00 | 0.00 | 0.00 | 54 | 1012.0 |
| 20260901193008 | 67 | 110 | 0.0 | 3.0 | 0.00 | 0.00 | 0.00 | 53 | 1012.0 |
| 20260901191509 | 68 | 167 | 0.0 | 4.0 | 0.00 | 0.00 | 0.00 | 55 | 1012.2 |
| 20260901190008 | 67 | 205 | 0.0 | 3.0 | 0.00 | 0.00 | 0.00 | 55 | 1012.4 |
| 20260901184504 | 66 | 116 | 0.0 | 1.0 | 0.00 | 0.00 | 0.00 | 57 | 1012.4 |
| 20260901183003 | 66 | 137 | 0.0 | 4.0 | 0.00 | 0.00 | 0.00 | 56 | 1012.5 |
| 20260901181511 | 67 | 175 | 0.0 | 1.0 | 0.00 | 0.00 | 0.00 | 55 | 1012.5 |
| 20260901180012 | 68 | 236 | 0.0 | 5.0 | 0.00 | 0.00 | 0.00 | 54 | 1012.5 |
| 20260901174518 | 67 | 216 | 0.0 | 5.0 | 0.00 | 0.00 | 0.00 | 58 | 1012.7 |
| 20260901173023 | 66 | 118 | 0.0 | 6.0 | 0.00 | 0.00 | 0.00 | 60 | 1012.7 |
| 20260901171509 | 64 | 146 | 0.0 | 3.0 | 0.00 | 0.00 | 0.00 | 61 | 1012.6 |
| 20260901170008 | 63 | 121 | 0.0 | 3.0 | 0.00 | 0.00 | 0.00 | 63 | 1012.6 |
| 20260901164506 | 62 | 135 | 0.0 | 4.0 | 0.00 | 0.00 | 0.00 | 64 | 1012.7 |
| 20260901163017 | 61 | 158 | 0.0 | 4.0 | 0.00 | 0.00 | 0.00 | 65 | 1012.8 |
| 20260901161519 | 61 | 70 | 0.0 | 2.0 | 0.00 | 0.00 | 0.00 | 65 | 1013.0 |
| 20260901160019 | 61 | 119 | 0.0 | 2.0 | 0.00 | 0.00 | 0.00 | 65 | 1012.9 |
| 20260901154521 | 61 | 117 | 0.0 | 2.0 | 0.00 | 0.00 | 0.00 | 65 | 1012.8 |
| 20260901153017 | 61 | 94 | 0.0 | 2.0 | 0.00 | 0.00 | 0.00 | 64 | 1012.8 |
| 20260901151521 | 61 | 162 | 0.0 | 1.0 | 0.00 | 0.00 | 0.00 | 63 | 1012.8 |
| 20260901150012 | 61 | 110 | 0.0 | 3.0 | 0.00 | 0.00 | 0.00 | 63 | 1012.7 |
| 20260901144523 | 60 | 134 | 0.0 | 2.0 | 0.00 | 0.00 | 0.00 | 63 | 1012.5 |
| 20260901143028 | 60 | 186 | 0.0 | 5.0 | 0.00 | 0.00 | 0.00 | 63 | 1012.5 |
| 20260901141527 | 60 | 116 | 0.0 | 0.0 | 0.00 | 0.00 | 0.00 | 64 | 1012.4 |
| 20260901140031 | 60 | 117 | 0.0 | 0.0 | 0.00 | 0.00 | 0.00 | 64 | 1012.3 |
| 20260901134522 | 59 | 117 | 0.0 | 0.0 | 0.00 | 0.00 | 0.00 | 64 | 1012.2 |
| 20260901133025 | 59 | 116 | 0.0 | 0.0 | 0.00 | 0.00 | 0.00 | 64 | 1012.2 |
| 20260901131515 | 59 | 117 | 0.0 | 0.0 | 0.00 | 0.00 | 0.00 | 64 | 1012.2 |
| 20260901130013 | 59 | 116 | 0.0 | 0.0 | 0.00 | 0.00 | 0.00 | 64 | 1012.1 |
| 20260901124512 | 59 | 117 | 0.0 | 1.0 | 0.00 | 0.00 | 0.00 | 64 | 1012.0 |
| 20260901123004 | 59 | 113 | 0.0 | 0.0 | 0.00 | 0.00 | 0.00 | 65 | 1012.0 |
| 20260901121503 | 59 | 110 | 0.0 | 2.0 | 0.00 | 0.00 | 0.00 | 64 | 1012.1 |
| 20260901120003 | 59 | 117 | 0.0 | 0.0 | 0.00 | 0.00 | 0.00 | 65 | 1012.0 |
| 20260901114523 | 59 | 112 | 0.0 | 1.0 | 0.00 | 0.00 | 0.00 | 65 | 1012.0 |
| 20260901113021 | 59 | 106 | 0.0 | 0.0 | 0.00 | 0.00 | 0.00 | 65 | 1011.8 |
| 20260901111517 | 59 | 115 | 0.0 | 1.0 | 0.00 | 0.00 | 0.00 | 65 | 1011.8 |
| 20260901110023 | 58 | 116 | 0.0 | 0.0 | 0.00 | 0.00 | 0.00 | 66 | 1011.6 |
| 20260901104510 | 58 | 164 | 0.0 | 0.0 | 0.00 | 0.00 | 0.00 | 67 | 1011.6 |
| 20260901103011 | 57 | 164 | 0.0 | 0.0 | 0.00 | 0.00 | 0.00 | 67 | 1011.5 |
| 20260901101529 | 57 | 164 | 0.0 | 0.0 | 0.00 | 0.00 | 0.00 | 67 | 1011.5 |
| 20260901100031 | 57 | 137 | 0.0 | 1.0 | 0.00 | 0.00 | 0.00 | 67 | 1011.5 |
| 20260901094527 | 58 | 136 | 0.0 | 1.0 | 0.00 | 0.00 | 0.00 | 67 | 1011.5 |
| 20260901093023 | 58 | 141 | 0.0 | 0.0 | 0.00 | 0.00 | 0.00 | 67 | 1011.6 |
| 20260901091516 | 58 | 86 | 0.0 | 1.0 | 0.00 | 0.00 | 0.00 | 67 | 1011.4 |
| 20260901090016 | 58 | 342 | 0.0 | 0.0 | 0.00 | 0.00 | 0.00 | 67 | 1011.3 |
| 20260901084513 | 58 | 149 | 0.0 | 0.0 | 0.00 | 0.00 | 0.00 | 67 | 1011.3 |
| 20260901083032 | 58 | 149 | 0.0 | 0.0 | 0.00 | 0.00 | 0.00 | 66 | 1011.3 |
| 20260901081530 | 58 | 184 | 0.0 | 0.0 | 0.00 | 0.00 | 0.00 | 66 | 1011.3 |
| 20260901080032 | 59 | 184 | 0.0 | 0.0 | 0.00 | 0.00 | 0.00 | 66 | 1011.3 |
| 20260901074527 | 59 | 169 | 0.0 | 0.0 | 0.00 | 0.00 | 0.00 | 66 | 1011.3 |
| 20260901073025 | 59 | 143 | 0.0 | 0.0 | 0.00 | 0.00 | 0.00 | 66 | 1011.1 |
| 20260901071526 | 59 | 172 | 0.0 | 1.0 | 0.00 | 0.00 | 0.00 | 66 | 1011.1 |
| 20260901070017 | 59 | 115 | 0.0 | 1.0 | 0.00 | 0.00 | 0.00 | 65 | 1011.1 |
| 20260901064542 | 60 | 184 | 0.0 | 1.0 | 0.00 | 0.00 | 0.00 | 65 | 1011.0 |
| 20260901063036 | 60 | 16 | 0.0 | 2.0 | 0.00 | 0.00 | 0.00 | 65 | 1010.8 |
| 20260901061534 | 60 | 260 | 0.0 | 0.0 | 0.00 | 0.00 | 0.00 | 64 | 1010.8 |
| 20260901060030 | 60 | 260 | 0.0 | 1.0 | 0.00 | 0.00 | 0.00 | 64 | 1010.6 |
| 20260901054528 | 61 | 271 | 0.0 | 1.0 | 0.00 | 0.00 | 0.00 | 64 | 1010.4 |
| 20260901053023 | 61 | 330 | 0.0 | 3.0 | 0.00 | 0.00 | 0.00 | 64 | 1010.3 |
| 20260901051520 | 61 | 283 | 0.0 | 3.0 | 0.00 | 0.00 | 0.00 | 63 | 1010.2 |
| 20260901050036 | 61 | 163 | 0.0 | 2.0 | 0.00 | 0.00 | 0.00 | 63 | 1010.0 |
| 20260901044540 | 62 | 182 | 1.0 | 5.0 | 0.00 | 0.00 | 0.00 | 62 | 1009.8 |
| 20260901043014 | 62 | 323 | 0.0 | 5.0 | 0.00 | 0.00 | 0.00 | 61 | 1009.7 |
| 20260901041509 | 63 | 298 | 0.0 | 4.0 | 0.00 | 0.00 | 0.00 | 59 | 1009.3 |
| 20260901040010 | 65 | 148 | 0.0 | 5.0 | 0.00 | 0.00 | 0.00 | 56 | 1009.2 |
| 20260901034503 | 66 | 205 | 0.0 | 3.0 | 0.00 | 0.00 | 0.00 | 53 | 1008.8 |
| 20260901033004 | 67 | 18 | 0.0 | 9.0 | 0.00 | 0.00 | 0.00 | 52 | 1008.6 |
| 20260901031504 | 68 | 330 | 0.0 | 6.0 | 0.00 | 0.00 | 0.00 | 49 | 1008.4 |
| 20260901030022 | 69 | 300 | 2.0 | 7.0 | 0.00 | 0.00 | 0.00 | 48 | 1008.2 |
| 20260901024526 | 70 | 323 | 1.0 | 5.0 | 0.00 | 0.00 | 0.00 | 45 | 1008.0 |
| 20260901023012 | 72 | 308 | 3.0 | 7.0 | 0.00 | 0.00 | 0.00 | 43 | 1007.8 |
| 20260901021510 | 74 | 312 | 2.0 | 5.0 | 0.00 | 0.00 | 0.00 | 40 | 1007.8 |
| 20260901020006 | 75 | 326 | 1.0 | 5.0 | 0.00 | 0.00 | 0.00 | 38 | 1007.7 |
| 20260901014504 | 77 | 295 | 2.0 | 5.0 | 0.00 | 0.00 | 0.00 | 37 | 1007.7 |
| 20260901013004 | 79 | 317 | 2.0 | 6.0 | 0.00 | 0.00 | 0.00 | 35 | 1007.6 |
| 20260901011525 | 82 | 335 | 3.0 | 8.0 | 0.00 | 0.00 | 0.00 | 32 | 1007.5 |
| 20260901010023 | 86 | 124 | 0.0 | 1.0 | 0.00 | 0.00 | 0.00 | 24 | 1007.4 |
| 20260901004532 | 87 | 120 | 0.0 | 1.0 | 0.00 | 0.00 | 0.00 | 24 | 1007.5 |
| 20260901003010 | 87 | 134 | 0.0 | 1.0 | 0.00 | 0.00 | 0.00 | 25 | 1007.6 |
| 20260901001522 | 86 | 141 | 0.0 | 1.0 | 0.00 | 0.00 | 0.00 | 26 | 1007.6 |